GSAT0201 (GALILEO 5)

Last updated on Sun Jun 21 2026 00:02:55 GMT+0000 (Coordinated Universal Time)

1 40128U 14050A 26170.57286915 -.00000074 00000+0 00000+0 0 9994 2 40128 48.8729 273.3385 1674922 179.4838 180.7636 1.85520003 78366
UTC large
Height (km)
Speed (km/s)
/
Latitude / Longitude
Inclination (degrees)
Orbital Period (minutes)
Azimuth
Elevation
Range (km)
Doppler Factor

Next 0 passes for location: London (51.5072 / 0.1276)

No passes found over London.
GSAT0201 (GALILEO 5)